When you browse on this site, cookies collect data to enhance your experience and personalize the content and advertising you see.
Visit our Privacy Policy to learn more. By continuing to use the site, you agree to this use of cookies and data.
  • en Suisse
  • Liste des pays
  • À 7 jours
  • Température de l'eau
  • Carte météo
  • Widgets météo
  • user-avatar
    Se connecter

    Météo par heure à Ugledar

    Ce jour, 22 Février, Samedi

    Heure Température Précipitation Vent Pression Humidité
    00:00 0°C° 0 mm 3 m/s 749 mmHg 98%
    01:00 0°C° 0 mm 3 m/s 749 mmHg 98%
    02:00 0°C° 0 mm 3 m/s 749 mmHg 98%
    03:00 0°C° 0 mm 3 m/s 749 mmHg 98%
    04:00 0°C° 0 mm 3 m/s 749 mmHg 98%
    05:00 0°C° 0 mm 3 m/s 749 mmHg 98%
    06:00 0°C° 0.1 mm 3 m/s 750 mmHg 98%
    07:00 0°C° 0.1 mm 3 m/s 750 mmHg 99%
    08:00 0°C° 0 mm 3 m/s 750 mmHg 99%
    09:00 0°C° 0.2 mm 3 m/s 750 mmHg 99%
    10:00 0°C° 0.2 mm 3 m/s 750 mmHg 99%
    11:00 0°C° 0.2 mm 3 m/s 750 mmHg 99%
    12:00 +1°C° 0.1 mm 2 m/s 750 mmHg 99%
    13:00 +1°C° 0.1 mm 2 m/s 750 mmHg 99%
    14:00 +1°C° 0.1 mm 2 m/s 750 mmHg 99%
    15:00 +1°C° 0.3 mm 2 m/s 750 mmHg 99%
    16:00 +1°C° 0.3 mm 2 m/s 750 mmHg 99%
    17:00 +1°C° 0.3 mm 2 m/s 750 mmHg 98%
    18:00 +1°C° 0.1 mm 2 m/s 751 mmHg 98%
    19:00 +1°C° 0.1 mm 2 m/s 751 mmHg 98%
    20:00 +1°C° 0.1 mm 2 m/s 751 mmHg 98%
    21:00 -1°C° 0 mm 2 m/s 751 mmHg 98%
    22:00 +1°C° 0 mm 1 m/s 750 mmHg 98%
    23:00 +1°C° 0 mm 1 m/s 750 mmHg 98%

    Demain, 23 Février, Dimanche

    Heure Température Précipitation Vent Pression Humidité
    00:00 +1°C° 0 mm 1 m/s 750 mmHg 98%
    01:00 -1°C° 0 mm 2 m/s 750 mmHg 98%
    02:00 -1°C° 0 mm 2 m/s 750 mmHg 98%
    03:00 -1°C° 0 mm 2 m/s 750 mmHg 97%
    04:00 -1°C° 0 mm 2 m/s 749 mmHg 97%
    05:00 -1°C° 0 mm 2 m/s 749 mmHg 97%
    06:00 -1°C° 0 mm 3 m/s 749 mmHg 95%
    07:00 -1°C° 0 mm 3 m/s 749 mmHg 94%
    08:00 -1°C° 0 mm 3 m/s 749 mmHg 93%
    09:00 -1°C° 0 mm 4 m/s 748 mmHg 92%
    10:00 -1°C° 0 mm 4 m/s 748 mmHg 90%
    11:00 0°C° 0 mm 5 m/s 748 mmHg 88%
    12:00 0°C° 0 mm 5 m/s 747 mmHg 84%
    13:00 +1°C° 0 mm 6 m/s 746 mmHg 80%
    14:00 +2°C° 0 mm 6 m/s 746 mmHg 76%
    15:00 +1°C° 0 mm 6 m/s 745 mmHg 80%
    16:00 +1°C° 0 mm 6 m/s 744 mmHg 83%
    17:00 0°C° 0 mm 7 m/s 744 mmHg 86%
    18:00 0°C° 0 mm 7 m/s 743 mmHg 85%
    19:00 0°C° 0 mm 7 m/s 743 mmHg 84%
    20:00 0°C° 0 mm 7 m/s 743 mmHg 83%
    21:00 0°C° 0 mm 7 m/s 743 mmHg 84%
    22:00 0°C° 0 mm 7 m/s 742 mmHg 85%
    23:00 0°C° 0 mm 7 m/s 742 mmHg 87%

    Après-demain, 24 Février, Lundi

    Heure Température Précipitation Vent Pression Humidité
    00:00 0°C° 0 mm 7 m/s 741 mmHg 87%
    01:00 +1°C° 0 mm 6 m/s 741 mmHg 88%
    02:00 +1°C° 0 mm 5 m/s 741 mmHg 89%
    03:00 -1°C° 0 mm 6 m/s 740 mmHg 90%
    04:00 -1°C° 0 mm 6 m/s 739 mmHg 91%
    05:00 -1°C° 0 mm 6 m/s 738 mmHg 93%
    06:00 0°C° 0 mm 7 m/s 737 mmHg 91%
    07:00 0°C° 0 mm 8 m/s 736 mmHg 90%
    08:00 0°C° 0 mm 9 m/s 735 mmHg 89%
    09:00 0°C° 0.3 mm 10 m/s 733 mmHg 91%
    10:00 0°C° 0.3 mm 10 m/s 732 mmHg 93%
    11:00 -1°C° 0.3 mm 11 m/s 730 mmHg 96%
    12:00 0°C° 1.2 mm 10 m/s 729 mmHg 95%
    13:00 +1°C° 1.2 mm 9 m/s 728 mmHg 95%
    14:00 +1°C° 1.2 mm 8 m/s 726 mmHg 95%
    15:00 +2°C° 0.6 mm 7 m/s 726 mmHg 95%
    16:00 +2°C° 0.6 mm 5 m/s 725 mmHg 95%
    17:00 +3°C° 0.6 mm 4 m/s 725 mmHg 95%
    18:00 +1°C° 1.1 mm 6 m/s 726 mmHg 95%
    19:00 -1°C° 1.1 mm 8 m/s 727 mmHg 96%
    20:00 -2°C° 1.1 mm 10 m/s 728 mmHg 96%
    21:00 -3°C° 1.1 mm 11 m/s 729 mmHg 93%
    22:00 -3°C° 1.1 mm 12 m/s 731 mmHg 90%
    23:00 -4°C° 1.1 mm 13 m/s 732 mmHg 87%

    25 Février, Mardi

    Heure Température Précipitation Vent Pression Humidité
    00:00 -4°C° 0 mm 13 m/s 734 mmHg 84%
    01:00 -3°C° 0 mm 12 m/s 735 mmHg 80%
    02:00 -4°C° 0 mm 11 m/s 737 mmHg 77%
    03:00 -4°C° 0 mm 10 m/s 739 mmHg 77%
    04:00 -5°C° 0 mm 9 m/s 740 mmHg 77%
    05:00 -5°C° 0 mm 8 m/s 741 mmHg 77%
    06:00 -5°C° 0 mm 8 m/s 742 mmHg 76%
    07:00 -5°C° 0 mm 8 m/s 743 mmHg 75%
    08:00 -3°C° 0 mm 7 m/s 744 mmHg 75%
    09:00 -2°C° 0 mm 7 m/s 745 mmHg 71%
    10:00 -1°C° 0 mm 6 m/s 745 mmHg 67%
    11:00 +1°C° 0 mm 6 m/s 745 mmHg 64%
    12:00 +1°C° 0 mm 6 m/s 745 mmHg 62%
    13:00 +2°C° 0 mm 6 m/s 746 mmHg 60%
    14:00 +2°C° 0 mm 6 m/s 746 mmHg 59%
    15:00 +2°C° 0 mm 5 m/s 746 mmHg 63%
    16:00 +1°C° 0 mm 4 m/s 745 mmHg 67%
    17:00 +1°C° 0 mm 3 m/s 745 mmHg 71%
    18:00 +1°C° 0 mm 3 m/s 745 mmHg 73%
    19:00 0°C° 0 mm 4 m/s 745 mmHg 76%
    20:00 -1°C° 0 mm 4 m/s 745 mmHg 78%
    21:00 -1°C° 0 mm 4 m/s 745 mmHg 79%
    22:00 -1°C° 0 mm 5 m/s 744 mmHg 81%
    23:00 -1°C° 0 mm 5 m/s 744 mmHg 82%

    26 Février, Mercredi

    Heure Température Précipitation Vent Pression Humidité
    00:00 -1°C° 0 mm 5 m/s 744 mmHg 83%
    01:00 -1°C° 0 mm 5 m/s 744 mmHg 83%
    02:00 -1°C° 0 mm 6 m/s 743 mmHg 84%
    03:00 -2°C° 0 mm 6 m/s 743 mmHg 85%
    04:00 -2°C° 0 mm 6 m/s 743 mmHg 87%
    05:00 -1°C° 0 mm 5 m/s 742 mmHg 88%
    06:00 -1°C° 0 mm 6 m/s 742 mmHg 86%
    07:00 -1°C° 0 mm 6 m/s 742 mmHg 84%
    08:00 0°C° 0 mm 7 m/s 742 mmHg 83%
    09:00 +2°C° 0 mm 7 m/s 742 mmHg 78%
    10:00 +2°C° 0 mm 8 m/s 741 mmHg 73%
    11:00 +4°C° 0 mm 8 m/s 741 mmHg 68%
    12:00 +5°C° 0 mm 9 m/s 741 mmHg 65%
    13:00 +5°C° 0 mm 9 m/s 740 mmHg 62%
    14:00 +6°C° 0 mm 9 m/s 740 mmHg 59%
    15:00 +5°C° 0 mm 9 m/s 739 mmHg 63%
    16:00 +4°C° 0 mm 8 m/s 739 mmHg 66%
    17:00 +2°C° 0 mm 8 m/s 739 mmHg 70%
    18:00 +2°C° 0 mm 8 m/s 739 mmHg 72%
    19:00 +2°C° 0 mm 8 m/s 739 mmHg 74%
    20:00 +1°C° 0 mm 8 m/s 739 mmHg 75%
    21:00 +2°C° 0 mm 7 m/s 739 mmHg 76%
    22:00 +2°C° 0 mm 7 m/s 738 mmHg 76%
    23:00 0°C° 0 mm 7 m/s 738 mmHg 77%

    27 Février, Jeudi

    Heure Température Précipitation Vent Pression Humidité
    00:00 +1°C° 0 mm 6 m/s 738 mmHg 79%
    01:00 +1°C° 0 mm 6 m/s 738 mmHg 80%
    02:00 +1°C° 0 mm 6 m/s 738 mmHg 82%
    03:00 +1°C° 0 mm 5 m/s 737 mmHg 83%
    04:00 +1°C° 0 mm 5 m/s 737 mmHg 85%
    05:00 +1°C° 0 mm 5 m/s 737 mmHg 87%
    06:00 +2°C° 0 mm 5 m/s 737 mmHg 85%
    07:00 +2°C° 0 mm 6 m/s 737 mmHg 83%
    08:00 +3°C° 0 mm 6 m/s 737 mmHg 81%
    09:00 +5°C° 0 mm 6 m/s 737 mmHg 72%
    10:00 +8°C° 0 mm 6 m/s 737 mmHg 64%
    11:00 +9°C° 0 mm 7 m/s 737 mmHg 55%
    12:00 +10°C° 0 mm 7 m/s 737 mmHg 56%
    13:00 +10°C° 0 mm 7 m/s 737 mmHg 58%
    14:00 +10°C° 0 mm 7 m/s 736 mmHg 59%
    15:00 +10°C° 0 mm 7 m/s 737 mmHg 64%
    16:00 +9°C° 0 mm 6 m/s 737 mmHg 69%
    17:00 +8°C° 0 mm 5 m/s 737 mmHg 75%
    18:00 +8°C° 0 mm 5 m/s 737 mmHg 79%
    19:00 +7°C° 0 mm 5 m/s 737 mmHg 83%
    20:00 +6°C° 0 mm 5 m/s 738 mmHg 87%
    21:00 +6°C° 0 mm 4 m/s 738 mmHg 88%
    22:00 +5°C° 0 mm 4 m/s 738 mmHg 90%
    23:00 +5°C° 0 mm 3 m/s 738 mmHg 92%
    Voir plus